Greensboro, NC

4:06 AM EST on November 19, 2017 (GMT -0500)
Piedmont Triad International

Weather History for KGSO - April, 2014

Change the Weather History Date:

Friday, April 11, 2014

  Actual Average Record
Temperature  
Mean Temperature 66 °F 58 °F  
Max Temperature 78 °F 69 °F 91 °F (1930)
Min Temperature 53 °F 46 °F 25 °F (1960)
Degree Days  
Heating Degree Days 0 8  
Month to date heating degree days 57 105  
Since 1 July heating degree days 3661 3430  
Cooling Degree Days 1 1  
Month to date cooling degree days 6 10  
Year to date cooling degree days 6 15  
Growing Degree Days 16 (Base 50)    
Moisture  
Dew Point 38 °F    
Average Humidity 39    
Maximum Humidity 54    
Minimum Humidity 24    
Precipitation  
Precipitation 0.00 in 0.12 in 2.69 in (1944)
Month to date precipitation 1.73 1.34  
Year to date precipitation 12.31 11.09  
Snow  
Snow 0.00 in 0.00 in T in (1950)
Month to date snowfall 0.0 0.1  
Since 1 July snowfall 15.3 7.6  
Snow Depth 0.00 in    
Sea Level Pressure  
Sea Level Pressure 30.11 in    
Wind  
Wind Speed 13 mph (SW)    
Max Wind Speed 24 mph    
Max Gust Speed 32 mph    
Visibility 10 miles    
Events      
T = Trace of Precipitation, MM = Missing Value Source: NWS Daily Summary

Daily Weather History Graph

Daily Weather History Graph

Search for Another Location

Airport or City:

Trip Planner

Search our weather history database for the weather conditions in past years. The results will help you decide how hot, cold, wet, or windy it might be!

Date:

Astronomy

Apr. 11, 2014 Rise Set
Actual Time 6:51 AM EDT 7:50 PM EDT
Civil Twilight 6:25 AM EDT 8:16 PM EDT
Nautical Twilight 5:54 AM EDT 8:47 PM EDT
Astronomical Twilight 5:22 AM EDT 9:19 PM EDT
Moon 4:34 PM EDT (4/11) 4:39 AM EDT (4/11)
Length of Visible Light 13h 50m
Length of Day
12h 58m
Waxing Gibbous, 87% of the Moon is Illuminated
Apr 11
Waxing Gibbous
Apr 15
Full
Apr 22
Last Quarter
Apr 29
New
May 6
First Quarter

Hourly Weather History & Observations

Time (EDT) Temp. Dew Point Humidity Pressure Visibility Wind Dir Wind Speed Gust Speed Precip Events Conditions
12:54 AM 57.9 °F 34.0 °F 41% 30.16 in 10.0 mi SW 6.9 mph - N/A   Clear
1:54 AM 57.9 °F 35.1 °F 42% 30.14 in 10.0 mi SW 8.1 mph - N/A   Clear
2:54 AM 57.0 °F 35.1 °F 44% 30.12 in 10.0 mi SW 9.2 mph - N/A   Clear
3:54 AM 57.0 °F 35.1 °F 44% 30.12 in 10.0 mi SW 10.4 mph - N/A   Clear
4:54 AM 55.9 °F 35.1 °F 45% 30.12 in 10.0 mi SW 9.2 mph - N/A   Clear
5:54 AM 54.0 °F 36.0 °F 51% 30.14 in 10.0 mi SW 8.1 mph - N/A   Clear
6:54 AM 54.0 °F 37.0 °F 53% 30.15 in 10.0 mi SSW 9.2 mph - N/A   Partly Cloudy
7:54 AM 57.0 °F 37.9 °F 49% 30.16 in 10.0 mi SW 10.4 mph 17.3 mph N/A   Scattered Clouds
8:54 AM 60.1 °F 37.9 °F 44% 30.17 in 10.0 mi SW 15.0 mph - N/A   Mostly Cloudy
9:54 AM 63.0 °F 39.0 °F 41% 30.18 in 10.0 mi SW 15.0 mph 19.6 mph N/A   Mostly Cloudy
10:54 AM 69.1 °F 39.0 °F 33% 30.16 in 10.0 mi SW 15.0 mph - N/A   Overcast
11:54 AM 73.0 °F 39.0 °F 29% 30.15 in 10.0 mi WSW 18.4 mph 24.2 mph N/A   Overcast
12:54 PM 73.9 °F 37.0 °F 26% 30.11 in 10.0 mi SW 20.7 mph 28.8 mph N/A   Overcast
1:54 PM 75.0 °F 37.9 °F 26% 30.09 in 10.0 mi WSW 21.9 mph 28.8 mph N/A   Overcast
2:54 PM 75.9 °F 37.0 °F 24% 30.05 in 10.0 mi WSW 18.4 mph 27.6 mph N/A   Overcast
3:54 PM 77.0 °F 37.0 °F 24% 30.04 in 10.0 mi SW 19.6 mph 26.5 mph N/A   Overcast
4:54 PM 75.9 °F 37.9 °F 25% 30.03 in 10.0 mi West 18.4 mph 25.3 mph N/A   Overcast
5:54 PM 75.0 °F 39.0 °F 27% 30.03 in 10.0 mi WSW 17.3 mph 26.5 mph N/A   Overcast
6:54 PM 73.0 °F 39.0 °F 29% 30.04 in 10.0 mi SW 17.3 mph 24.2 mph N/A   Mostly Cloudy
7:54 PM 70.0 °F 42.1 °F 36% 30.04 in 10.0 mi SSW 13.8 mph - N/A   Mostly Cloudy
8:54 PM 68.0 °F 42.1 °F 39% 30.06 in 10.0 mi SW 11.5 mph - N/A   Mostly Cloudy
9:54 PM 64.9 °F 42.1 °F 43% 30.10 in 10.0 mi SW 8.1 mph - N/A   Mostly Cloudy
10:54 PM 63.0 °F 42.1 °F 46% 30.11 in 10.0 mi SW 4.6 mph - N/A   Partly Cloudy
11:54 PM 61.0 °F 43.0 °F 52% 30.10 in 10.0 mi SSW 4.6 mph - N/A   Clear